Tracking 27420 objects as of 11-Jun-2023
HD Live streaming from Space Station
objects crossing your sky now

STARLINK-5375

Track STARLINK-5375 now!
10-day predictions
STARLINK-5375 is classified as:


NORAD ID: 56140
Int'l Code: 2023-046BA
Perigee: 540.7 km
Apogee: 542.4 km
Inclination: 43.0 °
Period: 95.3 minutes
Semi major axis: 6912 km
RCS: Unknown
Launch date: March 29, 2023
Source: United States (US)
Launch site: AIR FORCE EASTERN TEST RANGE (AFETR)
Your satellite tracking list
Your tracking list is empty




NASA's NSSDC Master Catalog

Two Line Element Set (TLE):
1 56140U 23046BA  23161.58334491 -.00889847  00000-0 -57137-1 0  9991
2 56140  42.9970 196.6746 0001225 280.3218 218.2157 15.10579247  1303
Source of the keplerian elements: AFSPC